Regional Weather Roundup
Issued by NWS

Home | Current Version | Previous Version | Text Only | Print | Product List | Glossary Off
Versions: 1 2 3 4 5 6 7 8 9 10 11 12 13 14 15 16 17 18 19 20 21 22 23 24 25 26 27 28 29 30 31 32 33 34 35 36 37 38 39 40 41 42 43 44 45 46 47 48

000
ASUS45 KSLC 300110
RWRUT

UTAH REGIONAL WEATHER ROUNDUP
NATIONAL WEATHER SERVICE SALT LAKE CITY UT
600 PM MST THU JAN 29 2015

UTZ001>011-023>025-300200-

NORTHERN UTAH

CITY           SKY/WX    TMP DP  RH WIND       PRES   REMARKS
BRIGHAM CITY   CLOUDY    43  36  75 CALM      30.26F
HILL AFB       CLOUDY    42  32  69 NW7       30.25F
LOGAN          CLEAR     36  34  92 SW5       30.29S WCI  32
OGDEN          CLOUDY    42  35  76 NW7       30.25S
PROVO AIRPORT  CLOUDY    39  32  75 CALM      30.25S
SALT LAKE CITY CLOUDY    41  35  79 W6        30.25F
VERNAL         CLOUDY    42  29  59 W5        30.29S
WENDOVER       CLOUDY    43  32  65 CALM      30.27S
HEBER CITY     CLOUDY    34  32  93 CALM      30.26S
WEST JORDAN    CLEAR     39  36  87 NW5       30.26F

$$

UTZ012>022-026-027-300200-

SOUTHERN/CENTRAL UTAH

CITY           SKY/WX    TMP DP  RH WIND       PRES   REMARKS
BLANDING       CLOUDY    47  31  53 NE7       30.34F
BRYCE CANYON   CLOUDY    37  28  70 SE7       30.26S WCI  32
CEDAR CITY     CLOUDY    42  33  70 SW5       30.20S
DELTA          CLOUDY    46  36  68 S5        30.25S
HANKSVILLE     CLOUDY    48  32  53 N5        30.28S
MILFORD        CLOUDY    43  35  73 N10       30.22F
MOAB/CYNLANDS  CLOUDY    47  35  63 N3        30.26R
PRICE          CLOUDY    46  26  45 SE7       30.28R
ST GEORGE      CLOUDY    55  39  54 SE5       30.13S
KANAB            N/A     48  32  53 NE7       30.22S

$$

REGIONAL REPORTS     COLORADO/ARIZONA

CITY           SKY/WX    TMP DP  RH WIND       PRES   REMARKS
CRAIG, CO      CLOUDY    33  29  85 CALM      30.31S
GRAND JUNCTION CLOUDY    45  30  55 NE8       30.26S
RIFLE          CLOUDY    42  27  55 CALM      30.28R
MONTROSE       CLOUDY    44  27  51 CALM      30.31R
CORTEZ         CLOUDY    49  28  44 SE12      30.30R
PAGE, AZ       NOT AVBL
GRAND CANYON   CLOUDY    45  31  58 E6        30.21R
KINGMAN        CLOUDY    56  41  57 NE3       30.08S
FLAGSTAFF      LGT RAIN  41  37  86 NE5       30.22S

$$

REGIONAL REPORTS    NEVADA/IDAHO/WYOMING

CITY           SKY/WX    TMP DP  RH WIND       PRES   REMARKS
LAS VEGAS, NV  CLOUDY    63  35  35 CALM      30.05R
ELY            LGT RAIN  37  35  92 CALM      30.24S
ELKO           CLOUDY    46  32  58 N3        30.20F
POCATELLO, ID  CLEAR     37  33  85 NE8       30.31F WCI  31
BURLEY         CLOUDY    39  33  79 E8        30.28S WCI  33
EVANSTON, WY   MOCLDY    32  27  81 NE7       30.31S WCI  26
ROCK SPRINGS   CLOUDY    34  26  72 E5        30.31S WCI  30
KEMMERER       CLOUDY    32  27  80 N7        30.33R WCI  26

$$


USA.gov is the U.S. government's official web portal to all federal, state and local government web resources and services.